Location: Limoges
(45.8354°N, 1.2645°E)
Time: 20:47:03
(UTC+02:00)

Courier 1B Rocket - Pass Details

Date: 24 February 2024
Orbit: 920 x 1201 km, 28.2° (Epoch: 20 April)

Event Time Altitude Azimuth Distance (km) Brightness Sun altitude
Rises 04:46:16 0° 224° (SW) 3,554 - -31.3°
Reaches altitude 10° 04:50:20 10° 199° (SSW) 2,601 - -30.6°
Maximum altitude 04:53:13 14° 171° (S) 2,355 - -30.1°
Exits shadow 04:53:54 13° 164° (SSE) 2,372 7.0 -30.0°
Drops below altitude 10° 04:56:07 10° 143° (SE) 2,615 7.4 -29.7°
Sets 05:00:13 0° 118° (ESE) 3,589 8.6 -29.0°
